STARLINK-36910, 68005

Orbit data source: Space-Track

STARLINK-36910, 68005 is a payload satellite owned by SpaceX/Seattle (US) in LEO that was launched on Fri, 27 Feb 2026 UTC via an FALCON 9 launch vehicle from the Air Force Eastern Test Range (AFETR). Payload-class satellites include a variety of spacecraft equipped with specific instruments for various scientific and technological missions. These include communications satellites like Starlink; space stations such as the ISS; scientific satellites like the Hubble; Earth observation satellites from companies like Planet Labs, Umbra, and HawkEye 360; GPS; miniature CubeSats for education and research; and military/defense satellites.

Loading next visibility...
Identifier
68005, 2026-039V
Orbit
LEO
Country
Flag of USUS
Related business
Manufacturer
SpaceX/Seattle
Mission
Operational Commercial Communications
Bus & Motor
STARLINK V2MO, Unknown motor
Mass
575 kg wet, ~530 kg dry
Launch date (UTC)
2026-02-27 (4 months ago)
Launch vehicle
FALCON 9
Launch site
Air Force Eastern Test Range (AFETR)
Object type
Payload
Rocket body
Debris
Shape & HBR
Box + 2 Pan, 17.7 m
Radar Cross Section
36.964 m², Large (>1 m²)

Expand to show TLE details & history
Last TLE update: 21 hours ago

TLE from 21 hours ago
0 STARLINK-36910
1 68005U 26039V   26171.10512893  .00009294  00000-0  34680-3 0  9993
2 68005  43.0025 190.7871 0001304 266.0844  93.9859 15.27585020 17361
Epoch: 2026-06-20T02:31Z
TLE epoch observation values (Epoch: 2026-06-20T02:31:23.139Z)
Latitude
Longitude
-115.38384°
Altitude
482.872 km
Speed
7.626 km/s
True Right ascension
12h 43m 08s
True Declination
0° 00' 00"
Sunlit
Object was in daylight at epoch
Visualization orbit readout
Latitude
Unknown
Longitude
Unknown
Altitude
Unknown
Speed
Unknown
Apparent Right ascension
Unknown
Apparent Declination
Unknown
Sunlit
N/A
Visualization observer readout
Local Sidereal Time
10:18:06
Azimuth
Unknown
Elevation
Unknown
Doppler factor
Unknown
Orbital elements
Apogee altitude
485.874 km
Perigee altitude
484.084 km
Semi-major axis
6,863.116 km
Eccentricity
0.00013
Inclination
43.0025°
RAAN
190.7871°
Arg. of periapsis
266.0844°
True anomaly
94.00081°
Mean anomaly
93.9859°
Eccentric anomaly
93.99335°
Mean motion
3.81734 °/min
Orbital period
94.31 mins
BSTAR
0.0003468
Loading maneuver chart data...
Computing Atmospheric mass density...
Loading historical data...
Loading historical data...
Loading historical data...
Loading historical data...
Loading historical data...
Loading historical data...
Loading historical data...

Documentation

Showing up to 5 results
|